Location: Campillo
(40.8621°N, 4.2488°W)
Time: 01:35:11
(UTC+00:00)

Cosmos 2154 Rocket - Pass Details

Date: 02 October 2021
Orbit: 965 x 997 km, 82.9° (Epoch: 21 October)

Event Time Altitude Azimuth Distance (km) Brightness Sun altitude
Rises 18:43:13 0° 192° (SSW) 3,701 7.1 -9.5°
Reaches altitude 10° 18:45:45 10° 194° (SSW) 2,756 6.5 -10.0°
Maximum altitude 18:52:04 72° 278° (W) 1,045 4.4 -11.2°
Drops below altitude 10° 18:58:25 10° 3° (N) 2,764 6.4 -12.4°
Sets 19:00:57 0° 6° (N) 3,713 7.1 -12.9°
